Location: Borotín
(49.5055°N, 14.6142°E)
Time: 07:27:16
(UTC+00:00)

Cosmos 1455 - Pass Details

Date: 27 May 2022
Orbit: 492 x 515 km, 82.5° (Epoch: 28 June)

Event Time Altitude Azimuth Distance (km) Brightness Sun altitude
Rises 02:02:26 0° 333° (NNW) 2,586 6.0 -8.3°
Reaches altitude 10° 02:05:19 10° 308° (NW) 1,696 4.8 -8.0°
Maximum altitude 02:07:21 14° 275° (W) 1,443 4.1 -7.8°
Drops below altitude 10° 02:09:22 10° 242° (WSW) 1,688 4.2 -7.6°
Enters shadow 02:09:38 - 238° (WSW) 1,749 4.3 -7.5°
